Year,Month,Day,Hour,Minute,Value (Times are PST for temperature in C)
2009,06,29,00,00,10.20
2009,06,29,00,01,10.20
2009,06,29,00,02,10.20
2009,06,29,00,03,10.20
2009,06,29,00,04,10.20
2009,06,29,00,05,10.20
2009,06,29,00,06,10.20
2009,06,29,00,07,10.20
2009,06,29,00,08,10.20
2009,06,29,00,09,10.20
2009,06,29,00,10,10.20
2009,06,29,00,11,10.20
2009,06,29,00,12,10.20
2009,06,29,00,13,10.20
2009,06,29,00,14,10.20
2009,06,29,00,15,10.20
2009,06,29,00,16,10.10
2009,06,29,00,17,10.10
2009,06,29,00,18,10.10
2009,06,29,00,19,10.10
2009,06,29,00,20,10.10
2009,06,29,00,21,10.10
2009,06,29,00,22,10.10
2009,06,29,00,23,10.00
2009,06,29,00,24,10.00
2009,06,29,00,25,10.00
2009,06,29,00,26,10.00
2009,06,29,00,27,10.00
2009,06,29,00,28,10.00
2009,06,29,00,29,10.00
2009,06,29,00,30,10.00
2009,06,29,00,31,9.90
2009,06,29,00,32,9.90
2009,06,29,00,33,9.90
2009,06,29,00,34,9.90
2009,06,29,00,35,9.90
2009,06,29,00,36,9.90
2009,06,29,00,37,9.90
2009,06,29,00,38,9.90
2009,06,29,00,39,9.90
2009,06,29,00,40,9.90
2009,06,29,00,41,9.80
2009,06,29,00,42,9.80
2009,06,29,00,43,9.80
2009,06,29,00,44,9.80
2009,06,29,00,45,9.80
2009,06,29,00,46,9.80
2009,06,29,00,47,9.80
2009,06,29,00,48,9.80
2009,06,29,00,49,9.80
2009,06,29,00,50,9.90
2009,06,29,00,51,10.00
2009,06,29,00,52,10.10
2009,06,29,00,53,10.20
2009,06,29,00,54,10.40
2009,06,29,00,55,10.50
2009,06,29,00,56,10.60
2009,06,29,00,57,10.70
2009,06,29,00,58,10.70
2009,06,29,00,59,10.80
2009,06,29,01,00,10.80
2009,06,29,01,01,10.80
2009,06,29,01,02,10.80
2009,06,29,01,03,10.70
2009,06,29,01,04,10.70
2009,06,29,01,05,10.70
2009,06,29,01,06,10.60
2009,06,29,01,07,10.60
2009,06,29,01,08,10.60
2009,06,29,01,09,10.50
2009,06,29,01,10,10.50
2009,06,29,01,11,10.50
2009,06,29,01,12,10.50
2009,06,29,01,13,10.60
2009,06,29,01,14,10.80
2009,06,29,01,15,11.00
2009,06,29,01,16,11.20
2009,06,29,01,17,11.40
2009,06,29,01,18,11.50
2009,06,29,01,19,11.60
2009,06,29,01,20,11.70
2009,06,29,01,21,11.80
2009,06,29,01,22,11.80
2009,06,29,01,23,11.80
2009,06,29,01,24,11.70
2009,06,29,01,25,11.60
2009,06,29,01,26,11.60
2009,06,29,01,27,11.50
2009,06,29,01,28,11.40
2009,06,29,01,29,11.30
2009,06,29,01,30,11.30
2009,06,29,01,31,11.20
2009,06,29,01,32,11.10
2009,06,29,01,33,11.10
2009,06,29,01,34,11.00
2009,06,29,01,35,10.90
2009,06,29,01,36,10.90
2009,06,29,01,37,10.80
2009,06,29,01,38,10.80
2009,06,29,01,39,10.70
2009,06,29,01,40,10.70
2009,06,29,01,41,10.60
2009,06,29,01,42,10.60
2009,06,29,01,43,10.60
2009,06,29,01,44,10.50
2009,06,29,01,45,10.40
2009,06,29,01,46,10.40
2009,06,29,01,47,10.40
2009,06,29,01,48,10.30
2009,06,29,01,49,10.30
2009,06,29,01,50,10.30
2009,06,29,01,51,10.20
2009,06,29,01,52,10.20
2009,06,29,01,53,10.30
2009,06,29,01,54,10.50
2009,06,29,01,55,10.50
2009,06,29,01,56,10.60
2009,06,29,01,57,10.70
2009,06,29,01,58,10.90
2009,06,29,01,59,10.90
2009,06,29,02,00,11.10
2009,06,29,02,01,11.20
2009,06,29,02,02,11.30
2009,06,29,02,03,11.30
2009,06,29,02,04,11.30
2009,06,29,02,05,11.40
2009,06,29,02,06,11.40
2009,06,29,02,07,11.50
2009,06,29,02,08,11.50
2009,06,29,02,09,11.50
2009,06,29,02,10,11.50
2009,06,29,02,11,11.50
2009,06,29,02,12,11.40
2009,06,29,02,13,11.40
2009,06,29,02,14,11.40
2009,06,29,02,15,11.40
2009,06,29,02,16,11.30
2009,06,29,02,17,11.30
2009,06,29,02,18,11.30
2009,06,29,02,19,11.20
2009,06,29,02,20,11.20
2009,06,29,02,21,11.10
2009,06,29,02,22,11.10
2009,06,29,02,23,11.00
2009,06,29,02,24,11.00
2009,06,29,02,25,11.10
2009,06,29,02,26,11.10
2009,06,29,02,27,11.10
2009,06,29,02,28,11.30
2009,06,29,02,29,11.50
2009,06,29,02,30,11.60
2009,06,29,02,31,11.80
2009,06,29,02,32,12.10
2009,06,29,02,33,12.20
2009,06,29,02,34,12.40
2009,06,29,02,35,12.60
2009,06,29,02,36,12.80
2009,06,29,02,37,12.90
2009,06,29,02,38,13.00
2009,06,29,02,39,13.10
2009,06,29,02,40,13.30
2009,06,29,02,41,13.30
2009,06,29,02,42,13.40
2009,06,29,02,43,13.40
2009,06,29,02,44,13.50
2009,06,29,02,45,13.50
2009,06,29,02,46,13.60
2009,06,29,02,47,13.60
2009,06,29,02,48,13.60
2009,06,29,02,49,13.60
2009,06,29,02,50,13.60
2009,06,29,02,51,13.60
2009,06,29,02,52,13.60
2009,06,29,02,53,13.60
2009,06,29,02,54,13.70
2009,06,29,02,55,13.70
2009,06,29,02,56,13.70
2009,06,29,02,57,13.70
2009,06,29,02,58,13.70
2009,06,29,02,59,13.70
2009,06,29,03,00,13.70
2009,06,29,03,01,13.70
2009,06,29,03,02,13.70
2009,06,29,03,03,13.70
2009,06,29,03,04,13.70
2009,06,29,03,05,13.60
2009,06,29,03,06,13.60
2009,06,29,03,07,13.60
2009,06,29,03,08,13.60
2009,06,29,03,09,13.50
2009,06,29,03,10,13.50
2009,06,29,03,11,13.50
2009,06,29,03,12,13.50
2009,06,29,03,13,13.50
2009,06,29,03,14,13.50
2009,06,29,03,15,13.60
2009,06,29,03,16,13.60
2009,06,29,03,17,13.60
2009,06,29,03,18,13.60
2009,06,29,03,19,13.60
2009,06,29,03,20,13.60
2009,06,29,03,21,13.60
2009,06,29,03,22,13.60
2009,06,29,03,23,13.60
2009,06,29,03,24,13.50
2009,06,29,03,25,13.50
2009,06,29,03,26,13.50
2009,06,29,03,27,13.50
2009,06,29,03,28,13.60
2009,06,29,03,29,13.60
2009,06,29,03,30,13.60
2009,06,29,03,31,13.60
2009,06,29,03,32,13.60
2009,06,29,03,33,13.60
2009,06,29,03,34,13.50
2009,06,29,03,35,13.50
2009,06,29,03,36,13.50
2009,06,29,03,37,13.50
2009,06,29,03,38,13.40
2009,06,29,03,39,13.40
2009,06,29,03,40,13.40
2009,06,29,03,41,13.40
2009,06,29,03,42,13.40
2009,06,29,03,43,13.40
2009,06,29,03,44,13.40
2009,06,29,03,45,13.40
2009,06,29,03,46,13.40
2009,06,29,03,47,13.30
2009,06,29,03,48,13.30
2009,06,29,03,49,13.30
2009,06,29,03,50,13.40
2009,06,29,03,51,13.40
2009,06,29,03,52,13.40
2009,06,29,03,53,13.40
2009,06,29,03,54,13.40
2009,06,29,03,55,13.40
2009,06,29,03,56,13.40
2009,06,29,03,57,13.40
2009,06,29,03,58,13.40
2009,06,29,03,59,13.40
2009,06,29,04,00,13.30
2009,06,29,04,01,13.30
2009,06,29,04,02,13.30
2009,06,29,04,03,13.20
2009,06,29,04,04,13.20
2009,06,29,04,05,13.20
2009,06,29,04,09,13.10
2009,06,29,04,10,13.10
2009,06,29,04,12,13.10
2009,06,29,04,13,13.10
2009,06,29,04,15,13.00
2009,06,29,04,16,13.00
2009,06,29,04,18,12.90
2009,06,29,04,21,12.90
2009,06,29,04,22,12.90
2009,06,29,04,23,12.90
2009,06,29,04,24,12.80
2009,06,29,04,25,12.80
2009,06,29,04,26,12.80
2009,06,29,04,27,12.80
2009,06,29,04,28,12.80
2009,06,29,04,29,12.80
2009,06,29,04,30,12.80
2009,06,29,04,31,12.80
2009,06,29,04,32,12.70
2009,06,29,04,33,12.70
2009,06,29,04,34,12.70
2009,06,29,04,35,12.70
2009,06,29,04,36,12.70
2009,06,29,04,37,12.60
2009,06,29,04,38,12.60
2009,06,29,04,39,12.60
2009,06,29,04,40,12.60
2009,06,29,04,41,12.60
2009,06,29,04,42,12.50
2009,06,29,04,43,12.50
2009,06,29,04,44,12.50
2009,06,29,04,45,12.40
2009,06,29,04,46,12.40
2009,06,29,04,47,12.40
2009,06,29,04,48,12.30
2009,06,29,04,49,12.20
2009,06,29,04,50,12.20
2009,06,29,04,51,12.10
2009,06,29,04,52,12.00
2009,06,29,04,53,11.90
2009,06,29,04,54,11.90
2009,06,29,04,55,11.80
2009,06,29,04,56,11.80
2009,06,29,04,57,11.70
2009,06,29,04,58,11.60
2009,06,29,04,59,11.50
2009,06,29,05,00,11.30
2009,06,29,05,01,11.20
2009,06,29,05,02,11.10
2009,06,29,05,03,11.10
2009,06,29,05,04,11.00
2009,06,29,05,05,10.90
2009,06,29,05,06,10.90
2009,06,29,05,07,10.90
2009,06,29,05,08,10.90
2009,06,29,05,09,10.90
2009,06,29,05,10,10.90
2009,06,29,05,11,10.90
2009,06,29,05,12,10.90
2009,06,29,05,13,10.90
2009,06,29,05,14,10.90
2009,06,29,05,15,10.90
2009,06,29,05,16,10.90
2009,06,29,05,17,10.80
2009,06,29,05,18,10.80
2009,06,29,05,19,10.70
2009,06,29,05,20,10.70
2009,06,29,05,21,10.60
2009,06,29,05,22,10.50
2009,06,29,05,23,10.50
2009,06,29,05,24,10.40
2009,06,29,05,25,10.40
2009,06,29,05,26,10.40
2009,06,29,05,27,10.40
2009,06,29,05,28,10.40
2009,06,29,05,29,10.40
2009,06,29,05,30,10.30
2009,06,29,05,31,10.40
2009,06,29,05,32,10.40
2009,06,29,05,33,10.40
2009,06,29,05,34,10.30
2009,06,29,05,35,10.30
2009,06,29,05,36,10.30
2009,06,29,05,37,10.20
2009,06,29,05,38,10.20
2009,06,29,05,39,10.10
2009,06,29,05,40,10.00
2009,06,29,05,41,10.00
2009,06,29,05,42,9.90
2009,06,29,05,43,9.80
2009,06,29,05,44,9.80
2009,06,29,05,45,9.70
2009,06,29,05,46,9.70
2009,06,29,05,47,9.70
2009,06,29,05,48,9.60
2009,06,29,05,49,9.60
2009,06,29,05,50,9.60
2009,06,29,05,51,9.60
2009,06,29,05,52,9.60
2009,06,29,05,53,9.60
2009,06,29,05,54,9.60
2009,06,29,05,55,9.60
2009,06,29,05,56,9.60
2009,06,29,05,57,9.60
2009,06,29,05,58,9.60
2009,06,29,05,59,9.60
2009,06,29,06,00,9.60
2009,06,29,06,01,9.60
2009,06,29,06,02,9.60
2009,06,29,06,03,9.60
2009,06,29,06,04,9.60
2009,06,29,06,05,9.60
2009,06,29,06,06,9.60
2009,06,29,06,07,9.70
2009,06,29,06,08,9.70
2009,06,29,06,09,9.70
2009,06,29,06,10,9.70
2009,06,29,06,11,9.80
2009,06,29,06,12,9.80
2009,06,29,06,13,9.80
2009,06,29,06,14,9.90
2009,06,29,06,15,10.00
2009,06,29,06,16,10.00
2009,06,29,06,17,10.10
2009,06,29,06,18,10.10
2009,06,29,06,19,10.20
2009,06,29,06,20,10.20
2009,06,29,06,21,10.20
2009,06,29,06,22,10.20
2009,06,29,06,23,10.20
2009,06,29,06,24,10.20
2009,06,29,06,25,10.20
2009,06,29,06,26,10.20
2009,06,29,06,27,10.20
2009,06,29,06,28,10.20
2009,06,29,06,29,10.30
2009,06,29,06,30,10.30
2009,06,29,06,31,10.40
2009,06,29,06,32,10.50
2009,06,29,06,33,10.70
2009,06,29,06,34,10.80
2009,06,29,06,35,10.90
2009,06,29,06,36,10.90
2009,06,29,06,37,11.00
2009,06,29,06,38,11.10
2009,06,29,06,39,11.20
2009,06,29,06,40,11.30
2009,06,29,06,41,11.40
2009,06,29,06,42,11.50
2009,06,29,06,43,11.60
2009,06,29,06,44,11.70
2009,06,29,06,45,11.80
2009,06,29,06,46,11.90
2009,06,29,06,47,11.90
2009,06,29,06,48,12.00
2009,06,29,06,49,12.10
2009,06,29,06,50,12.20
2009,06,29,06,51,12.20
2009,06,29,06,52,12.30
2009,06,29,06,53,12.30
2009,06,29,06,54,12.40
2009,06,29,06,55,12.50
2009,06,29,06,56,12.50
2009,06,29,06,57,12.60
2009,06,29,06,58,12.60
2009,06,29,06,59,12.70
2009,06,29,07,00,12.70
2009,06,29,07,01,12.80
2009,06,29,07,02,12.80
2009,06,29,07,03,12.80
2009,06,29,07,04,12.90
2009,06,29,07,05,12.90
2009,06,29,07,06,13.00
2009,06,29,07,07,13.00
2009,06,29,07,08,13.10
2009,06,29,07,09,13.10
2009,06,29,07,10,13.10
2009,06,29,07,11,13.20
2009,06,29,07,12,13.20
2009,06,29,07,13,13.20
2009,06,29,07,14,13.20
2009,06,29,07,15,13.20
2009,06,29,07,16,13.30
2009,06,29,07,17,13.30
2009,06,29,07,18,13.30
2009,06,29,07,19,13.30
2009,06,29,07,20,13.30
2009,06,29,07,21,13.40
2009,06,29,07,22,13.40
2009,06,29,07,23,13.40
2009,06,29,07,24,13.40
2009,06,29,07,25,13.40
2009,06,29,07,26,13.50
2009,06,29,07,27,13.50
2009,06,29,07,28,13.50
2009,06,29,07,29,13.50
2009,06,29,07,30,13.60
2009,06,29,07,31,13.60
2009,06,29,07,32,13.60
2009,06,29,07,33,13.60
2009,06,29,07,34,13.60
2009,06,29,07,35,13.70
2009,06,29,07,36,13.70
2009,06,29,07,37,13.70
2009,06,29,07,38,13.70
2009,06,29,07,39,13.80
2009,06,29,07,40,13.80
2009,06,29,07,41,13.80
2009,06,29,07,42,13.80
2009,06,29,07,43,13.90
2009,06,29,07,44,13.90
2009,06,29,07,45,13.90
2009,06,29,07,46,14.00
2009,06,29,07,47,14.00
2009,06,29,07,48,14.10
2009,06,29,07,49,14.10
2009,06,29,07,50,14.10
2009,06,29,07,51,14.20
2009,06,29,07,52,14.20
2009,06,29,07,53,14.20
2009,06,29,07,54,14.30
2009,06,29,07,55,14.30
2009,06,29,07,56,14.30
2009,06,29,07,57,14.30
2009,06,29,07,58,14.40
2009,06,29,07,59,14.40
2009,06,29,08,00,14.40
2009,06,29,08,01,14.40
2009,06,29,08,02,14.50
2009,06,29,08,03,14.50
2009,06,29,08,04,14.50
2009,06,29,08,05,14.60
2009,06,29,08,06,14.60
2009,06,29,08,07,14.60
2009,06,29,08,08,14.70
2009,06,29,08,09,14.70
2009,06,29,08,10,14.70
2009,06,29,08,11,14.70
2009,06,29,08,12,14.70
2009,06,29,08,13,14.70
2009,06,29,08,14,14.70
2009,06,29,08,15,14.70
2009,06,29,08,16,14.80
2009,06,29,08,17,14.80
2009,06,29,08,18,14.80
2009,06,29,08,19,14.80
2009,06,29,08,20,14.80
2009,06,29,08,21,14.90
2009,06,29,08,22,14.90
2009,06,29,08,23,14.90
2009,06,29,08,24,15.00
2009,06,29,08,25,15.00
2009,06,29,08,26,15.00
2009,06,29,08,27,15.00
2009,06,29,08,28,15.00
2009,06,29,08,29,15.20
2009,06,29,08,30,15.20
2009,06,29,08,31,15.20
2009,06,29,08,32,15.10
2009,06,29,08,33,15.10
2009,06,29,08,34,15.20
2009,06,29,08,35,15.20
2009,06,29,08,36,15.20
2009,06,29,08,37,15.10
2009,06,29,08,38,15.10
2009,06,29,08,39,15.00
2009,06,29,08,40,15.10
2009,06,29,08,41,15.10
2009,06,29,08,42,15.20
2009,06,29,08,43,15.20
2009,06,29,08,44,15.30
2009,06,29,08,45,15.30
2009,06,29,08,46,15.40
2009,06,29,08,47,15.40
2009,06,29,08,48,15.50
2009,06,29,08,49,15.60
2009,06,29,08,50,15.70
2009,06,29,08,51,15.70
2009,06,29,08,52,15.70
2009,06,29,08,53,15.70
2009,06,29,08,54,15.80
2009,06,29,08,55,15.90
2009,06,29,08,56,15.90
2009,06,29,08,57,15.90
2009,06,29,08,58,15.80
2009,06,29,08,59,15.80
2009,06,29,09,00,15.80
2009,06,29,09,01,15.90
2009,06,29,09,02,15.90
2009,06,29,09,03,16.00
2009,06,29,09,04,16.10
2009,06,29,09,05,16.10
2009,06,29,09,06,16.10
2009,06,29,09,07,16.00
2009,06,29,09,08,16.00
2009,06,29,09,09,15.90
2009,06,29,09,10,15.80
2009,06,29,09,11,15.80
2009,06,29,09,12,15.80
2009,06,29,09,13,15.90
2009,06,29,09,14,15.90
2009,06,29,09,15,15.90
2009,06,29,09,16,15.90
2009,06,29,09,17,15.90
2009,06,29,09,18,15.90
2009,06,29,09,19,16.00
2009,06,29,09,20,16.00
2009,06,29,09,21,16.00
2009,06,29,09,22,16.00
2009,06,29,09,23,15.90
2009,06,29,09,24,15.90
2009,06,29,09,25,15.90
2009,06,29,09,26,15.80
2009,06,29,09,27,15.80
2009,06,29,09,28,15.70
2009,06,29,09,29,15.80
2009,06,29,09,30,15.70
2009,06,29,09,31,15.70
2009,06,29,09,32,15.70
2009,06,29,09,33,15.70
2009,06,29,09,34,15.70
2009,06,29,09,35,15.70
2009,06,29,09,36,15.70
2009,06,29,09,37,15.70
2009,06,29,09,38,15.70
2009,06,29,09,39,15.70
2009,06,29,09,40,15.70
2009,06,29,09,41,15.70
2009,06,29,09,42,15.70
2009,06,29,09,43,15.70
2009,06,29,09,44,15.70
2009,06,29,09,45,15.70
2009,06,29,09,46,15.80
2009,06,29,09,47,15.80
2009,06,29,09,48,15.80
2009,06,29,09,49,15.80
2009,06,29,09,50,15.90
2009,06,29,09,51,15.90
2009,06,29,09,52,16.00
2009,06,29,09,53,16.00
2009,06,29,09,54,16.00
2009,06,29,09,55,16.00
2009,06,29,09,56,16.00
2009,06,29,09,57,15.90
2009,06,29,09,58,15.90
2009,06,29,09,59,15.90
2009,06,29,10,00,16.00
2009,06,29,10,01,16.00
2009,06,29,10,02,16.10
2009,06,29,10,03,16.20
2009,06,29,10,04,16.20
2009,06,29,10,05,16.20
2009,06,29,10,06,16.30
2009,06,29,10,07,16.30
2009,06,29,10,08,16.30
2009,06,29,10,09,16.30
2009,06,29,10,10,16.40
2009,06,29,10,11,16.30
2009,06,29,10,12,16.30
2009,06,29,10,13,16.40
2009,06,29,10,14,16.50
2009,06,29,10,15,16.50
2009,06,29,10,16,16.60
2009,06,29,10,17,16.60
2009,06,29,10,18,16.70
2009,06,29,10,19,16.80
2009,06,29,10,20,17.00
2009,06,29,10,21,17.20
2009,06,29,10,22,17.40
2009,06,29,10,23,17.50
2009,06,29,10,24,17.60
2009,06,29,10,25,17.70
2009,06,29,10,26,17.80
2009,06,29,10,27,17.90
2009,06,29,10,28,18.00
2009,06,29,10,29,18.00
2009,06,29,10,30,18.10
2009,06,29,10,31,18.20
2009,06,29,10,32,18.30
2009,06,29,10,33,18.30
2009,06,29,10,34,18.40
2009,06,29,10,35,18.50
2009,06,29,10,36,18.50
2009,06,29,10,37,18.60
2009,06,29,10,38,18.60
2009,06,29,10,39,18.60
2009,06,29,10,40,18.60
2009,06,29,10,41,18.60
2009,06,29,10,42,18.50
2009,06,29,10,43,18.50
2009,06,29,10,44,18.60
2009,06,29,10,45,18.60
2009,06,29,10,46,18.50
2009,06,29,10,47,18.40
2009,06,29,10,48,18.40
2009,06,29,10,49,18.40
2009,06,29,10,50,18.50
2009,06,29,10,51,18.50
2009,06,29,10,52,18.60
2009,06,29,10,53,18.70
2009,06,29,10,54,18.80
2009,06,29,10,55,18.90
2009,06,29,10,56,19.00
2009,06,29,10,57,19.10
2009,06,29,10,58,19.30
2009,06,29,10,59,19.40
2009,06,29,11,00,19.50
2009,06,29,11,01,19.50
2009,06,29,11,02,19.50
2009,06,29,11,03,19.50
2009,06,29,11,04,19.40
2009,06,29,11,05,19.40
2009,06,29,11,06,19.40
2009,06,29,11,07,19.40
2009,06,29,11,08,19.40
2009,06,29,11,09,19.40
2009,06,29,11,10,19.50
2009,06,29,11,11,19.50
2009,06,29,11,12,19.60
2009,06,29,11,13,19.60
2009,06,29,11,14,19.60
2009,06,29,11,15,19.70
2009,06,29,11,16,19.70
2009,06,29,11,17,19.50
2009,06,29,11,18,19.40
2009,06,29,11,19,19.40
2009,06,29,11,20,19.30
2009,06,29,11,21,19.30
2009,06,29,11,22,19.40
2009,06,29,11,23,19.50
2009,06,29,11,24,19.60
2009,06,29,11,25,19.80
2009,06,29,11,26,19.90
2009,06,29,11,27,20.00
2009,06,29,11,28,20.00
2009,06,29,11,29,19.90
2009,06,29,11,30,19.80
2009,06,29,11,31,19.80
2009,06,29,11,32,19.90
2009,06,29,11,33,20.00
2009,06,29,11,34,20.10
2009,06,29,11,35,20.10
2009,06,29,11,36,20.10
2009,06,29,11,37,20.00
2009,06,29,11,38,20.00
2009,06,29,11,39,20.00
2009,06,29,11,40,20.10
2009,06,29,11,41,20.20
2009,06,29,11,42,20.20
2009,06,29,11,43,20.00
2009,06,29,11,44,19.80
2009,06,29,11,45,19.70
2009,06,29,11,46,19.60
2009,06,29,11,47,19.50
2009,06,29,11,48,19.40
2009,06,29,11,49,19.30
2009,06,29,11,50,19.20
2009,06,29,11,51,19.20
2009,06,29,11,52,19.20
2009,06,29,11,53,19.20
2009,06,29,11,54,19.30
2009,06,29,11,55,19.30
2009,06,29,11,56,19.40
2009,06,29,11,57,19.40
2009,06,29,11,58,19.30
2009,06,29,11,59,19.30
2009,06,29,12,00,19.40
2009,06,29,12,01,19.50
2009,06,29,12,02,19.60
2009,06,29,12,03,19.70
2009,06,29,12,04,19.70
2009,06,29,12,05,19.90
2009,06,29,12,06,20.00
2009,06,29,12,07,20.10
2009,06,29,12,08,20.20
2009,06,29,12,09,20.30
2009,06,29,12,10,20.30
2009,06,29,12,11,20.20
2009,06,29,12,12,20.10
2009,06,29,12,13,20.00
2009,06,29,12,14,20.00
2009,06,29,12,15,19.80
2009,06,29,12,16,19.70
2009,06,29,12,17,19.70
2009,06,29,12,18,19.80
2009,06,29,12,19,19.80
2009,06,29,12,20,19.80
2009,06,29,12,21,19.80
2009,06,29,12,22,19.80
2009,06,29,12,23,19.80
2009,06,29,12,24,19.70
2009,06,29,12,25,19.70
2009,06,29,12,26,19.60
2009,06,29,12,27,19.50
2009,06,29,12,28,19.30
2009,06,29,12,29,19.30
2009,06,29,12,30,19.20
2009,06,29,12,31,19.10
2009,06,29,12,32,18.90
2009,06,29,12,33,18.90
2009,06,29,12,34,18.90
2009,06,29,12,35,19.10
2009,06,29,12,36,19.20
2009,06,29,12,37,19.30
2009,06,29,12,38,19.30
2009,06,29,12,39,19.20
2009,06,29,12,40,19.20
2009,06,29,12,41,19.10
2009,06,29,12,42,19.20
2009,06,29,12,43,19.20
2009,06,29,12,44,19.20
2009,06,29,12,45,19.30
2009,06,29,12,46,19.30
2009,06,29,12,47,19.30
2009,06,29,12,48,19.30
2009,06,29,12,49,19.30
2009,06,29,12,50,19.30
2009,06,29,12,51,19.30
2009,06,29,12,52,19.30
2009,06,29,12,53,19.30
2009,06,29,12,54,19.30
2009,06,29,12,55,19.20
2009,06,29,12,56,19.00
2009,06,29,12,57,18.90
2009,06,29,12,58,18.80
2009,06,29,12,59,18.90
2009,06,29,13,00,19.00
2009,06,29,13,01,19.10
2009,06,29,13,02,19.20
2009,06,29,13,03,19.40
2009,06,29,13,04,19.50
2009,06,29,13,05,19.60
2009,06,29,13,06,19.70
2009,06,29,13,07,19.80
2009,06,29,13,08,19.90
2009,06,29,13,09,20.00
2009,06,29,13,10,20.10
2009,06,29,13,11,20.20
2009,06,29,13,12,20.20
2009,06,29,13,13,20.20
2009,06,29,13,14,20.10
2009,06,29,13,15,20.00
2009,06,29,13,16,19.90
2009,06,29,13,17,19.70
2009,06,29,13,18,19.60
2009,06,29,13,19,19.40
2009,06,29,13,20,19.30
2009,06,29,13,21,19.10
2009,06,29,13,22,19.00
2009,06,29,13,23,18.90
2009,06,29,13,24,18.80
2009,06,29,13,25,18.80
2009,06,29,13,26,18.80
2009,06,29,13,27,18.90
2009,06,29,13,28,18.90
2009,06,29,13,29,18.80
2009,06,29,13,30,18.70
2009,06,29,13,31,18.80
2009,06,29,13,32,18.80
2009,06,29,13,33,18.90
2009,06,29,13,34,18.90
2009,06,29,13,35,19.00
2009,06,29,13,36,18.90
2009,06,29,13,37,18.90
2009,06,29,13,38,19.00
2009,06,29,13,39,19.00
2009,06,29,13,40,19.10
2009,06,29,13,41,19.30
2009,06,29,13,42,19.30
2009,06,29,13,43,19.30
2009,06,29,13,44,19.30
2009,06,29,13,45,19.30
2009,06,29,13,46,19.30
2009,06,29,13,47,19.30
2009,06,29,13,48,19.30
2009,06,29,13,49,19.30
2009,06,29,13,50,19.30
2009,06,29,13,51,19.30
2009,06,29,13,52,19.20
2009,06,29,13,53,19.10
2009,06,29,13,54,19.00
2009,06,29,13,55,18.90
2009,06,29,13,56,19.00
2009,06,29,13,57,19.00
2009,06,29,13,58,19.00
2009,06,29,13,59,19.10
2009,06,29,14,00,19.10
2009,06,29,14,01,19.10
2009,06,29,14,02,18.90
2009,06,29,14,03,18.90
2009,06,29,14,04,18.90
2009,06,29,14,05,18.80
2009,06,29,14,06,18.80
2009,06,29,14,07,18.70
2009,06,29,14,08,18.70
2009,06,29,14,09,18.70
2009,06,29,14,10,18.80
2009,06,29,14,11,18.80
2009,06,29,14,12,18.80
2009,06,29,14,13,18.70
2009,06,29,14,14,18.60
2009,06,29,14,15,18.60
2009,06,29,14,16,18.70
2009,06,29,14,17,18.80
2009,06,29,14,18,18.80
2009,06,29,14,19,18.80
2009,06,29,14,20,18.80
2009,06,29,14,21,18.80
2009,06,29,14,22,18.80
2009,06,29,14,23,18.90
2009,06,29,14,24,18.90
2009,06,29,14,25,18.90
2009,06,29,14,26,18.80
2009,06,29,14,27,18.80
2009,06,29,14,28,18.70
2009,06,29,14,29,18.70
2009,06,29,14,30,18.70
2009,06,29,14,31,18.70
2009,06,29,14,32,18.80
2009,06,29,14,33,18.80
2009,06,29,14,34,18.90
2009,06,29,14,35,19.10
2009,06,29,14,36,19.20
2009,06,29,14,37,19.10
2009,06,29,14,38,19.00
2009,06,29,14,39,19.10
2009,06,29,14,40,19.10
2009,06,29,14,41,19.20
2009,06,29,14,42,19.20
2009,06,29,14,43,19.40
2009,06,29,14,44,19.50
2009,06,29,14,45,19.60
2009,06,29,14,46,19.60
2009,06,29,14,47,19.60
2009,06,29,14,48,19.70
2009,06,29,14,49,19.70
2009,06,29,14,50,19.60
2009,06,29,14,51,19.50
2009,06,29,14,52,19.50
2009,06,29,14,53,19.40
2009,06,29,14,54,19.30
2009,06,29,14,55,19.20
2009,06,29,14,56,19.10
2009,06,29,14,57,18.90
2009,06,29,14,58,19.00
2009,06,29,14,59,19.10
2009,06,29,15,00,19.00
2009,06,29,15,01,18.90
2009,06,29,15,02,18.80
2009,06,29,15,03,18.80
2009,06,29,15,04,18.90
2009,06,29,15,05,18.90
2009,06,29,15,06,18.90
2009,06,29,15,07,18.90
2009,06,29,15,08,18.90
2009,06,29,15,09,18.90
2009,06,29,15,10,18.90
2009,06,29,15,11,18.90
2009,06,29,15,12,18.90
2009,06,29,15,13,18.90
2009,06,29,15,14,18.90
2009,06,29,15,15,19.00
2009,06,29,15,16,19.10
2009,06,29,15,17,19.10
2009,06,29,15,18,19.10
2009,06,29,15,19,19.10
2009,06,29,15,20,19.20
2009,06,29,15,21,19.20
2009,06,29,15,22,19.20
2009,06,29,15,23,19.20
2009,06,29,15,24,19.10
2009,06,29,15,25,19.20
2009,06,29,15,26,19.20
2009,06,29,15,27,19.10
2009,06,29,15,28,19.10
2009,06,29,15,29,19.10
2009,06,29,15,30,19.10
2009,06,29,15,31,19.20
2009,06,29,15,32,19.20
2009,06,29,15,33,19.30
2009,06,29,15,34,19.40
2009,06,29,15,35,19.50
2009,06,29,15,36,19.50
2009,06,29,15,37,19.50
2009,06,29,15,38,19.50
2009,06,29,15,39,19.50
2009,06,29,15,40,19.50
2009,06,29,15,41,19.40
2009,06,29,15,42,19.30
2009,06,29,15,43,19.20
2009,06,29,15,44,19.20
2009,06,29,15,45,19.30
2009,06,29,15,46,19.30
2009,06,29,15,47,19.30
2009,06,29,15,48,19.40
2009,06,29,15,49,19.40
2009,06,29,15,50,19.50
2009,06,29,15,51,19.50
2009,06,29,15,52,19.60
2009,06,29,15,53,19.60
2009,06,29,15,54,19.60
2009,06,29,15,55,19.70
2009,06,29,15,56,19.70
2009,06,29,15,57,19.80
2009,06,29,15,58,19.90
2009,06,29,15,59,19.90
2009,06,29,16,00,19.90
2009,06,29,16,01,19.80
2009,06,29,16,02,19.70
2009,06,29,16,03,19.70
2009,06,29,16,04,19.60
2009,06,29,16,05,19.40
2009,06,29,16,06,19.00
2009,06,29,16,07,18.70
2009,06,29,16,08,18.50
2009,06,29,16,09,18.30
2009,06,29,16,10,18.20
2009,06,29,16,11,18.00
2009,06,29,16,12,17.90
2009,06,29,16,13,17.90
2009,06,29,16,14,18.00
2009,06,29,16,15,18.10
2009,06,29,16,16,18.10
2009,06,29,16,17,18.20
2009,06,29,16,18,18.20
2009,06,29,16,19,18.20
2009,06,29,16,20,18.20
2009,06,29,16,21,18.20
2009,06,29,16,22,18.20
2009,06,29,16,23,18.30
2009,06,29,16,24,18.30
2009,06,29,16,25,18.30
2009,06,29,16,26,18.30
2009,06,29,16,27,18.20
2009,06,29,16,28,18.20
2009,06,29,16,29,18.10
2009,06,29,16,30,18.10
2009,06,29,16,31,18.10
2009,06,29,16,32,18.10
2009,06,29,16,33,18.20
2009,06,29,16,34,18.30
2009,06,29,16,35,18.50
2009,06,29,16,36,18.60
2009,06,29,16,37,18.70
2009,06,29,16,38,18.80
2009,06,29,16,39,18.90
2009,06,29,16,40,18.90
2009,06,29,16,41,19.00
2009,06,29,16,42,19.10
2009,06,29,16,43,19.10
2009,06,29,16,44,19.10
2009,06,29,16,45,19.10
2009,06,29,16,46,19.10
2009,06,29,16,47,19.20
2009,06,29,16,48,19.20
2009,06,29,16,49,19.10
2009,06,29,16,50,19.10
2009,06,29,16,51,19.10
2009,06,29,16,52,19.10
2009,06,29,16,53,19.10
2009,06,29,16,54,19.10
2009,06,29,16,55,19.10
2009,06,29,16,56,19.10
2009,06,29,16,57,19.10
2009,06,29,16,58,19.20
2009,06,29,16,59,19.30
2009,06,29,17,00,19.30
2009,06,29,17,01,19.30
2009,06,29,17,02,19.30
2009,06,29,17,03,19.30
2009,06,29,17,04,19.20
2009,06,29,17,05,19.10
2009,06,29,17,06,19.10
2009,06,29,17,07,19.00
2009,06,29,17,08,18.90
2009,06,29,17,09,18.90
2009,06,29,17,10,18.90
2009,06,29,17,11,19.00
2009,06,29,17,12,19.00
2009,06,29,17,13,19.10
2009,06,29,17,14,19.10
2009,06,29,17,15,19.10
2009,06,29,17,16,19.10
2009,06,29,17,17,19.00
2009,06,29,17,18,18.70
2009,06,29,17,19,18.60
2009,06,29,17,20,18.40
2009,06,29,17,21,18.40
2009,06,29,17,22,18.40
2009,06,29,17,23,18.40
2009,06,29,17,24,18.50
2009,06,29,17,25,18.50
2009,06,29,17,26,18.40
2009,06,29,17,27,18.30
2009,06,29,17,28,18.20
2009,06,29,17,29,18.10